DELTA 1 DEB, 2775

Orbit data source: Space-Track

DELTA 1 DEB, 2775 is space debris in SSO originally from a launch on Sun, 02 Oct 1966 UTC launched from the Air Force Western Test Range (AFWTR). Debris objects in space refer to the collection of defunct objects orbiting the Earth. Examples of debris include non-operational satellites, rocket bodies, and fragments generated from explosions, collisions, or faulty payload assembly.

Loading next visibility...
Identifier
2775, 1966-087D
Orbit
SSO
Last TLE update
3 days ago
Origin
Manufacturer
Unknown
Mission
Spacecraft
Bus & Motor
Unknown
Mass
1 kg wet, 1 kg dry
Launch date (UTC)
1966-10-02 (59 years ago)
Launch vehicle
Unknown
Launch site
Air Force Western Test Range (AFWTR)
Object type
Payload
Rocket body
Debris
Shape & HBR
Cyl + 1 Cable, 3.5 m
Radar Cross Section
3.500 m², Small (<0.1 m²)

Expand to show TLE details & history

TLE from 3 days ago
0 DELTA 1 DEB
1 02775U 66087D   25189.56103508 -.00000016  00000-0  12155-3 0  9996
2 02775 100.9267 204.9013 0125485 113.5304  12.9694 12.71684344726656
Epoch: 2025-07-08T13:27Z
TLE epoch observation values (Epoch: 2025-07-08T13:27:53.43Z)
Latitude
51.90325°
Longitude
-89.64368°
Altitude
1,288.541 km
Speed
7.261 km/s
True Right ascension
02h 36m 19s
True Declination
51° 44' 52"
Sunlit
Object was in daylight at epoch
Visualization orbit readout
Latitude
7.48965°
Longitude
77.47624°
Altitude
1,392.578 km
Speed
7.157 km/s
Apparent Right ascension
12h 41m 43s
Apparent Declination
-14° 30' 10"
Sunlit
Object is in daylight
Visualization observer readout
Local Sidereal Time
23:00:28
Azimuth
311.756° NW
Elevation
-56.3°
Doppler factor
1
Orbital elements
Apogee altitude
1,469.817 km
Perigee altitude
1,275.297 km
Semi-major axis
7,750.694 km
Eccentricity
0.01255
Inclination
100.9267°
RAAN
204.9013°
Arg. of periapsis
113.5304°
True anomaly
Unknown
Mean anomaly
12.9694°
Eccentric anomaly
Unknown
Mean motion
3.18077 °/min
Orbital period
113.18 mins
BSTAR
0.00012155
Loading maneuver chart data...
Loading SW <> Apogee altitude chart data...
Loading historical data...
Loading historical data...
Loading historical data...
Loading historical data...
Loading historical data...
Loading historical data...
Loading historical data...
Other satellites on launch #87 in the year 1966 (1966-10-02 UTC)

DELTA 1 DEB Visibility forecast

Observer location: undefined°, undefined°

Span
Click to sort rows by Start time (UTC) header in descending order
Start Az.
Max El. time (UTC)
Max El. Az.
Max El.
End time (UTC)
End Az.
13 mins2025-07-11 13:10:33.557Z31.313° NE2025-07-11 13:17:33.557Z104.894° ESE33.596°2025-07-11 13:23:33.557Z165.562° S
11 mins2025-07-11 15:03:33.557Z354.334° N2025-07-11 15:08:33.557Z296.342° NW32.316°2025-07-11 15:14:33.557Z234.896° WSW
12 mins2025-07-12 00:01:33.557Z128.253° SE2025-07-12 00:06:33.557Z74.038° E35.662°2025-07-12 00:13:33.557Z356.973° N
12 mins2025-07-12 01:52:33.557Z202.539° SW2025-07-12 01:58:33.557Z264.635° W30.631°2025-07-12 02:04:33.557Z323.603° NNW
|